Location: Carella
(45.8167°N, 9.2667°E)
Time: 12:55:03
(UTC+00:00)

Cosmos 1328 - Pass Details

Date: 30 March 2020
Orbit: 539 x 544 km, 82.5° (Epoch: 02 June)

Event Time Altitude Azimuth Distance (km) Brightness Sun altitude
Rises 20:12:06 0° 350° (N) 2,718 8.0 -23.9°
Reaches altitude 10° 20:14:16 10° 351° (N) 1,821 7.0 -24.2°
Enters shadow 20:17:33 59° 348° (NNW) 634 4.2 -24.7°
